Location: Bay Ridge
(40.6340°N, 74.0146°W)
Time: 11:09:23
(UTC+00:00)

Meteor 1-26 Rocket - Pass Details

Date: 15 November 2019
Orbit: 816 x 919 km, 81.3° (Epoch: 05 December)

Event Time Altitude Azimuth Distance (km) Brightness Sun altitude
Rises 11:07:31 0° 351° (N) 3,487 7.1 -7.0°
Reaches altitude 10° 11:10:01 10° 353° (N) 2,529 6.4 -6.6°
Maximum altitude 11:15:45 77° 80° (E) 880 4.5 -5.5°
Drops below altitude 10° 11:21:18 10° 167° (SSE) 2,444 7.1 -4.5°
Sets 11:23:40 0° 168° (SSE) 3,362 7.8 -4.1°
